VK5ARG-5 Weather Reports


time (UTC)temp
C
wind
direction
speed
KPH
gust
KPH
rain 1hr
cm
rain 24hr
cm
rain mn
cm
humidity
%
barometer
mb
20260504210526 10 271 9.7 12.9 0.00 0.48 0.05 99
20260504205542 10 267 9.7 11.3 0.00 0.48 0.05 99
20260504204526 10 278 11.3 16.1 0.00 0.48 0.05 99
20260504203523 10 280 9.7 14.5 0.00 0.48 0.05 99
20260504202527 10 287 9.7 12.9 0.00 0.51 0.05 99
20260504201523 10 289 8.0 11.3 0.00 0.51 0.05 99
20260504200529 10 291 9.7 12.9 0.00 0.51 0.05 99
20260504195525 10 291 9.7 12.9 0.00 0.51 0.05 99
20260504194542 10 283 8.0 11.3 0.00 0.51 0.05 99
20260504193527 10 276 8.0 12.9 0.00 0.51 0.05 99
20260504192523 10 269 9.7 12.9 0.00 0.51 0.05 99
20260504191528 10 282 8.0 11.3 0.00 0.51 0.05 99
20260504190524 10 283 8.0 12.9 0.00 0.51 0.05 99
20260504185528 10 280 9.7 14.5 0.00 0.51 0.05 99
20260504184524 10 278 8.0 9.7 0.00 0.51 0.05 99
20260504183543 10 278 8.0 11.3 0.00 0.51 0.05 99
20260504182527 10 283 8.0 9.7 0.00 0.51 0.05 99
20260504181542 10 280 9.7 11.3 0.00 0.51 0.05 99
20260504180527 10 277 9.7 12.9 0.00 0.51 0.05 99
20260504175524 10 280 8.0 12.9 0.00 0.51 0.05 99
20260504174549 10 281 9.7 12.9 0.00 0.51 0.05 99
20260504173525 10 275 9.7 12.9 0.00 0.51 0.05 98
20260504172521 10 270 9.7 14.5 0.00 0.51 0.05 98
20260504171548 10 283 9.7 12.9 0.00 0.51 0.05 98
20260504170522 10 279 11.3 14.5 0.00 0.51 0.05 98
20260504150522 11 288 12.9 17.7 0.00 0.51 0.05 97
20260504140525 10 280 11.3 16.1 0.00 0.51 0.05 98
20260504130529 10 281 9.7 12.9 0.00 0.51 0.05 96
20260504110527 11 263 12.9 16.1 0.00 0.51 0.05 91
20260504100522 11 257 14.5 20.9 0.00 0.51 0.05 90
20260504081525 13 255 32.2 41.8 0.00 0.51 0.05 81
20260504080521 13 253 27.4 33.8 0.00 0.51 0.05 78
20260504050523 14 248 24.1 32.2 0.03 0.51 0.05 88
20260504045528 14 250 24.1 33.8 0.03 0.51 0.05 86
20260504044525 13 243 22.5 33.8 0.03 0.51 0.05 90
20260504043521 13 243 17.7 24.1 0.00 0.51 0.03 90
20260504042526 13 212 9.7 14.5 0.00 0.48 0.03 88
20260504041523 13 246 22.5 33.8 0.00 0.48 0.03 90
20260504040527 14 262 27.4 38.6 0.00 0.48 0.03 86
20260504035523 15 260 27.4 37.0 0.00 0.48 0.03 84
20260504034528 15 253 32.2 45.1 0.00 0.48 0.03 82
20260504033525 15 264 32.2 48.3 0.00 0.48 0.03 82
20260504032521 15 269 33.8 51.5 0.00 0.48 0.03 84
20260504031525 15 274 37.0 51.5 0.00 0.48 0.03 84
20260504030523 14 285 33.8 43.5 0.00 0.48 0.03 88
20260504025527 14 280 33.8 46.7 0.00 0.48 0.03 89
20260504024524 14 276 33.8 46.7 0.00 0.48 0.03 87
20260504023529 14 270 33.8 45.1 0.00 0.48 0.03 84
20260504022525 14 268 37.0 45.1 0.00 0.48 0.03 88
20260504021520 13 277 38.6 49.9 0.00 0.48 0.03 91
20260504020526 13 277 33.8 46.7 0.00 0.48 0.03 92
20260504015522 13 278 35.4 46.7 0.00 0.48 0.03 93
20260504014528 13 275 37.0 45.1 0.00 0.48 0.03 96
20260504013543 13 281 35.4 46.7 0.00 0.48 0.03 99
20260504012528 12 284 30.6 41.8 0.00 0.48 0.03 99
20260504011546 12 284 29.0 37.0 0.00 0.48 0.03 99
20260504010521 12 283 27.4 37.0 0.00 0.48 0.03 99
20260504005526 12 281 29.0 38.6 0.03 0.48 0.03 99
20260504004521 11 279 33.8 41.8 0.03 0.48 0.03 99
20260504003527 11 281 30.6 41.8 0.05 0.48 0.03 99
20260504002524 11 282 30.6 43.5 0.08 0.48 0.03 99
20260504001528 11 286 32.2 41.8 0.10 0.48 0.03 99
20260504000525 11 283 33.8 43.5 0.13 0.48 0.00 99
20260503235521 11 285 32.2 45.1 0.15 0.48 0.48 99
20260503234526 11 285 33.8 49.9 0.20 0.46 0.46 99
20260503233523 11 286 37.0 49.9 0.30 0.46 0.46 99
20260503232549 11 287 38.6 51.5 0.30 0.41 0.41 99
20260503231523 11 290 33.8 41.8 0.28 0.38 0.38 99
20260503230529 11 293 24.1 33.8 0.25 0.36 0.36 99
20260503225525 11 288 29.0 38.6 0.25 0.33 0.33 99
20260503224521 11 284 29.0 40.2 0.20 0.25 0.25 99
20260503223526 11 283 33.8 45.1 0.10 0.15 0.15 99
20260503222543 11 289 30.6 48.3 0.05 0.10 0.10 99
20260503221528 10 289 32.2 41.8 0.05 0.10 0.10 99
20260503220523 10 290 30.6 43.5 0.05 0.10 0.10 99
20260503215528 10 297 32.2 45.1 0.05 0.08 0.08 99
20260503214525 10 297 32.2 41.8 0.05 0.05 0.05 99
20260503213542 10 297 30.6 38.6 0.03 0.05 0.05 99
20260503212526 10 294 27.4 38.6 0.03 0.05 0.05 99
20260503211522 10 295 25.7 32.2 0.03 0.05 0.05 99